Location: Lagoa do Algod�o
(4.6000°S, 37.9500°W)
Time: 07:28:33
(UTC+00:00)

Daily predictions for brighter satellites

Satellite Brightness Start Highest point End
(mag) Time Altitude Azimuth Time Altitude Azimuth Time Altitude Azimuth
CZ-3A R/B 3.8 21:07:39 10° SW 21:13:35 43° SSE 21:24:03 10° E
Cosmos 1758 Rocket 3.8 21:10:06 10° S 21:14:18 48° E 21:18:31 10° NNE
Okean-O 3.5 21:10:51 10° SE 21:14:38 27° ENE 21:18:22 10° NNE
ARIANE 5 R/B 2.2 21:13:55 10° W 21:16:52 67° N 21:29:46 10° E
Okean O Rocket 3.8 21:13:11 10° SSW 21:17:09 32° WSW 21:21:06 10° NW
Delta 7925 Rocket 4.4 21:11:23 10° WNW 21:18:02 88° NNE 21:26:46 10° ESE
Cosmos 1943 3.1 21:15:46 10° N 21:21:22 78° ENE 21:26:58 10° SSE
CZ-2C R/B 2.9 21:17:43 10° SSE 21:22:34 70° ENE 21:27:36 10° N
Meteor 1-11 4.3 21:17:31 10° S 21:23:17 69° E 21:29:00 10° NNE
CZ-2C R/B 2.8 21:17:53 10° NNE 21:23:30 83° E 21:29:07 10° S
H-2A R/B 2.5 21:19:56 10° SE 21:24:21 33° ENE 21:28:44 10° NNE
CZ-2D R/B 3.7 21:24:01 10° S 21:27:53 68° WSW 21:31:44 10° NNW
Delta 2 Rocket 4.4 21:28:03 10° NW 21:34:44 61° NNE 21:42:51 10° ESE
Cosmos 2278 Rocket 2.6 21:29:11 10° SSW 21:34:47 66° WNW 21:40:23 10° N
YAOGAN 1 2.7 21:31:33 10° SSE 21:35:47 53° ENE 21:39:59 10° N
Cosmos 2098 Rocket 3.9 21:31:35 10° S 21:37:03 89° W 21:43:44 10° N
Helios 1A Rocket 3.3 21:35:07 10° SSE 21:38:58 39° ENE 21:42:49 10° N
NATO 3D Rocket 3.5 21:35:27 10° WSW 21:40:05 62° SSE 21:44:03 17° E
Cosmos 2298 Rocket 4.4 21:36:06 10° S 21:41:07 44° ESE 21:45:48 12° NNE
GEOS 3 Rocket 3.8 21:36:08 10° NNE 21:41:17 75° WNW 21:46:21 10° SSW
Ariane H10 4.2 21:36:57 10° WNW 21:42:02 61° NNE 22:22:03 10° E
Ariane H10 4.2 21:36:57 10° WNW 21:42:02 61° NNE 22:22:02 10° E
Ariane H10 4.2 21:36:57 10° WNW 21:42:03 61° NNE 22:22:02 10° E
ASTRO E2 4.1 21:38:48 10° W 21:42:17 29° NW 21:45:23 12° NNE
USA 276 2.6 21:39:27 10° SSW 21:42:32 43° SE 21:44:07 23° ENE
Cosmos 1943 Rocket 3.9 21:41:59 10° SE 21:44:09 12° ESE 21:44:44 12° E
Cosmos 1892 3.8 21:43:26 10° SSE 21:46:30 23° E 21:47:12 22° ENE
CSL-04 Rocket 4.1 21:43:06 10° SE 21:47:57 37° ENE 21:52:49 10° NNE
Ariane 42L Rocket 1.2 21:47:39 10° W 21:49:23 65° S 21:50:57 23° ESE
Cosmos 1825 Rocket 3.7 21:45:52 10° S 21:50:10 75° W 21:54:29 10° N
deb Ariane 4.1 21:47:50 10° WNW 21:50:38 51° N 21:55:18 20° ENE
Ariane H10 1.1 21:50:13 10° W 21:52:02 30° NNW 21:52:02 30° NNW
Ariane 44P Rocket 3.6 21:51:44 10° WNW 21:54:32 35° NNE 21:57:56 22° ENE
Delta 128 3.8 21:50:52 10° WNW 21:55:18 69° SSW 22:00:06 10° SE
SJ-11-01 4.2 21:52:57 10° SSE 21:57:42 85° E 22:02:24 10° N
SWARM A 4.4 21:56:42 10° S 22:00:00 71° W 22:03:18 10° N
Cosmos 1125 Rocket 3.6 22:00:30 10° S 22:05:31 50° ESE 22:07:46 30° NE
Meteor 2-8 Rocket 4.4 22:00:00 10° N 22:06:00 62° E 22:12:05 10° SSE
Cosmos 2297 4.0 22:00:52 10° S 22:06:11 43° ESE 22:08:15 31° ENE
Fermi 3.9 22:06:13 10° WSW 22:10:14 62° NNW 22:11:16 44° NNE
Cosmos 1953 Rocket 3.9 22:06:55 10° SSW 22:11:21 65° W 22:15:42 10° N
Lacrosse 5 rocket 3.6 22:12:53 10° SSE 22:14:42 14° SE 22:14:42 14° SE
Meteor 2-21 4.4 22:09:46 10° S 22:15:44 62° E 22:19:13 25° NNE
GPS 2-15 Rocket1 2.9 22:12:11 10° WNW 22:16:50 85° NNE 22:18:15 45° ESE
Cosmos 1812 Rocket 3.4 22:13:40 10° N 22:17:59 86° W 22:22:20 10° S
OAO 3 Rocket 3.4 22:13:54 10° WSW 22:18:48 64° NW 22:20:19 42° NNE
Cosmos 489 Rocket 4.4 22:13:55 10° N 22:20:10 69° ENE 22:26:23 10° SSE
Iridium 4 Rocket 4.3 22:15:47 10° NNW 22:20:31 46° W 22:24:54 10° SSW
Cosmos 2058 3.9 22:17:57 10° SSE 22:20:44 33° SE 22:20:44 33° SE
ARGOS 3.4 22:21:03 10° S 22:26:22 67° WSW 22:31:40 10° NNW
CZ-4 R/B 4.4 22:27:25 10° SW 22:30:17 18° WSW 22:33:07 10° WNW
Meteor 2-14 Rocket 4.3 22:25:16 10° S 22:31:21 86° E 22:34:27 31° N
Meteor 2-21 Rocket 4.3 22:29:34 10° S 22:35:36 70° E 22:36:58 53° NNE
Meteor 2-15 Rocket 4.4 22:35:27 55° ENE 22:35:58 57° E 22:41:58 10° SSE
ATLAS 3B CENTAUR R/B 3.7 22:38:32 10° WNW 22:39:31 11° NW 22:39:31 11° NW
Centaur D-1AR AC-41 4.4 22:31:38 10° WSW 22:43:26 35° S 22:45:03 29° SE
SL-08 RB Rocket 4.5 22:39:13 10° S 22:43:43 51° WSW 22:47:12 16° NNW
Cosmos 2266 Rocket 4.5 22:39:55 10° SSW 22:46:13 60° W 22:50:42 20° NNW
Centaur AC-72 3.6 22:42:00 10° W 22:47:42 55° SSW 22:57:16 13° ESE
ARIANE 44L R/B 3.1 22:43:04 10° W 22:51:49 61° SW 22:51:49 61° SW
CZ-2C R/B 4.4 22:58:29 54° WSW 22:58:29 54° WSW 23:02:30 10° SSW
BLOCK DM-SL R/B 3.8 22:34:55 10° W 22:59:37 64° N 22:59:53 63° N
Cosmos 2369 Rocket 3.5 23:08:22 10° S 23:11:18 31° S 23:11:18 31° S
CZ-3A R/B 3.7 23:06:40 10° WSW 23:15:34 79° NNW 23:18:03 63° NE
MOS 1-B Rocket 4.4 23:21:22 69° W 23:21:22 69° W 23:28:49 10° SSW
Cosmos 1943 Rocket 3.5 23:22:31 10° SW 23:26:17 35° WSW 23:26:17 35° WSW
